Location: Willingham
(52.3167°N, 0.0667°E)
Time: 20:06:15
(UTC+00:00)

Ariane Rocket - Pass Details

Date: 19 May 2025
Orbit: 755 x 765 km, 98.5° (Epoch: 23 June)

Event Time Altitude Azimuth Distance (km) Brightness Sun altitude
Exits shadow 21:17:05 11° 162° (SSE) 2,223 4.8 -9.9°
Maximum altitude 21:21:58 88° 73° (ENE) 771 3.0 -10.3°
Drops below altitude 10° 21:27:05 10° 345° (NNW) 2,313 6.7 -10.8°
Sets 21:29:24 0° 345° (NNW) 3,245 7.7 -11.0°
